Regional Weather Roundup
Issued by NWS

Home | Current Version | Previous Version | Graphics & Text | Print | Product List | Glossary Off
Versions: 1 2 3 4 5 6 7 8 9 10 11 12 13 14 15 16 17 18 19 20 21 22 23 24 25 26 27 28 29 30 31 32 33 34 35 36 37 38 39 40 41 42 43 44 45 46 47 48 49 50

000
ASUS43 KMPX 210601
RWRMN
WEATHER ROUNDUP FOR MINNESOTA
NATIONAL WEATHER SERVICE TWIN CITIES/CHANHASSEN MN
100 AM CDT SAT OCT 21 2017


NOTE: "FAIR" INDICATES FEW OR NO CLOUDS BELOW 12,000 FEET WITH NO
SIGNIFICANT WEATHER AND/OR OBSTRUCTIONS TO VISIBILITY. N/A MEANS
CURRENT SKY AND/OR WEATHER CONDITIONS ARE NOT AVAILABLE.

MNZ060>063-068>070-210700-
   Twin Cities Metro

CITY           SKY/WX    TMP DP  RH WIND       PRES   REMARKS
TWIN CITIES    MOCLDY    66  54  65 S17       29.73F
6HR MIN TEMP:  66; 6HR MAX TEMP:  71; 6HR PCP: TRACE;

ST PAUL        PTCLDY    64  53  67 SE14      29.74F
CRYSTAL        PTCLDY    64  51  62 S14       29.70F
BLAINE         MOCLDY    64  54  68 S13G21    29.72S
LAKEVILLE      CLOUDY    63  54  72 S15G22    29.73S
EDEN PRAIRIE   CLOUDY    65  53  65 S8        29.70F
6HR MIN TEMP:  65; 6HR MAX TEMP:  71; 6HR PCP: TRACE;

SOUTH ST PAUL  CLOUDY    64  51  62 S10G18    29.74S
LAKE ELMO      FAIR      63  54  72 S14       29.76F
$$
MNZ001>005-007-008-013>017-022>024-027-028-210700-
   Northwest Minnesota

CITY           SKY/WX    TMP DP  RH WIND       PRES   REMARKS
BEMIDJI        PTCLDY    65  52  63 S18G24    29.54S
HALLOCK        CLOUDY    70  55  60 S24       29.35S
ROSEAU         CLEAR     68  57  68 S20G29    29.43S
WARROAD        PTCLDY    64  55  72 S10       29.45F
CROOKSTON      PTCLDY    70  55  60 S26G36    29.40S
FOSSTON        CLOUDY    64  52  63 S21G26    29.48S
DETROIT LAKES  PTCLDY    64  55  72 S18G26    29.50F
MOORHEAD       CLOUDY    66  55  68 S25       29.42F
PARK RAPIDS    PTCLDY    65  54  67 S18G32    29.55F
MAHNOMEN       CLOUDY    66  55  67 S16G22    29.47S
$$
MNZ006-009>011-018-025>026-210700-
   North Central Minnesota

CITY           SKY/WX    TMP DP  RH WIND       PRES   REMARKS
BAUDETTE       CLOUDY    67  51  56 S15G25    29.50S
FLAG ISLAND    CLOUDY    57  48  72 SE15      29.46S
INTL FALLS     PTCLDY    66  46  48 S7G17     29.57F
6HR MIN TEMP:  66; 6HR MAX TEMP:  71;

WASKISH        CLOUDY    66  52  59 S10G22    29.52F
BIG FORK       CLOUDY    64  46  52 S12G18    29.60F
LONGVILLE      MOCLDY    64  50  59 S17G24    29.60S
GRAND RAPIDS   MOCLDY    63  47  55 SE15      29.65S
CRANE LAKE     CLOUDY    63  43  48 S10G17    29.64F
ORR            PTCLDY    64  43  45 S12G21    29.61F
COOK           CLOUDY    64  45  48 S10G17    29.66S
WALKER         CLOUDY    65  53  63 S20G28    29.56F
$$
MNZ012-019>021-037-210700-
   Northeast Minnesota

CITY           SKY/WX    TMP DP  RH WIND       PRES   REMARKS
DULUTH         CLEAR     62  47  57 S13       29.72F
6HR MIN TEMP:  61; 6HR MAX TEMP:  65;

ELY            CLOUDY    63  43  48 S12G21    29.70S
HIBBING        PTCLDY    62  44  51 S9        29.67F
EVELETH        CLOUDY    63  35  35 S10       29.70F
DULUTH HARBOR  CLOUDY    64  48  55 S5        29.72F
TWO HARBORS    CLOUDY    57  48  72 CALM      29.72S
SILVER BAY     CLOUDY    50  46  87 CALM      29.73S
GRAND MARAIS     N/A     51  47  86 CALM      29.76S
G MARAIS ARPRT PTCLDY    57  39  51 S5        29.79F
$$
MNZ029>031-032-039>041-046>048-054>057-064-210700-
   West Central Minnesota

CITY           SKY/WX    TMP DP  RH WIND       PRES   REMARKS
FERGUS FALLS   PTCLDY    66  55  68 S23G29    29.48F
WHEATON        PTCLDY    66  55  68 SE17G23   29.47S
MORRIS         PTCLDY    66  57  72 S24       29.50F
ALEXANDRIA     MOCLDY    65  55  70 S24       29.57F
ELBOW LAKE     FAIR      64  56  76 SE22G29   29.50F
WADENA         CLOUDY    64  54  68 S20G25    29.55S
GLENWOOD       CLOUDY    64  55  72 S22G30    29.58S
APPLETON       MOCLDY    66  55  68 S13G22    29.51F
BENSON         CLOUDY    66  55  68 S18G26    29.56F
ORTONVILLE     CLOUDY    66  57  72 N12G23    29.49S
MADISON        MOCLDY    70  57  64 S18G30    29.51F
WILLMAR        FAIR      64  55  72 SE15G24   29.61F
$$
MNZ033>034-036-042>043-049>051-058-059-210700-
   Central Minnesota

CITY           SKY/WX    TMP DP  RH WIND       PRES   REMARKS
ST CLOUD       PTCLDY    64  53  67 S17       29.65F
6HR MIN TEMP:  64; 6HR MAX TEMP:  69;

SAUK CENTRE    FAIR      63  54  72 S21G28    29.60S
PAYNESVILLE    CLOUDY    64  55  72 S21G30    29.63S
AITKIN         CLOUDY    61  48  63 SE14G20   29.64S
PINE RIVER     PTCLDY    61  48  63 S14       29.64S
BRAINERD       CLOUDY    64  51  62 S17G28    29.63F
STAPLES        CLOUDY    64  52  63 S15G23    29.58F
LONG PRAIRIE   FAIR      63  52  67 SE17G31   29.60F
LITTLE FALLS   CLOUDY    63  45  51 S14G20    29.62F
LITCHFIELD     CLOUDY    64  55  72 S9        29.65F
BUFFALO        CLOUDY    65  53  64 SE14G23   29.69F
MAPLE LAKE     CLOUDY    65  55  69 S8G16     29.68F
HUTCHINSON     CLOUDY    65  56  72 S13G23    29.67F
$$
MNZ037-044-045-052-053-210700-
   East Central Minnesota

CITY           SKY/WX    TMP DP  RH WIND       PRES   REMARKS
PRINCETON      CLOUDY    66  54  63 S16G22    29.68F
MORA           CLOUDY    63  50  63 S9        29.71F
CAMBRIDGE      CLOUDY    68  52  56 SE12      29.71S
RUSH CITY      MOCLDY    64  51  62 S14G20    29.72S
MOOSE LAKE     MOCLDY    63  46  55 S10       29.69S
HINCKLEY       MOCLDY    64  50  59 S12       29.71F
CLOQUET        CLEAR     64  45  48 S8G21     29.71S
MCGREGOR       CLOUDY    63  48  59 S14       29.67F
$$
MNZ071>073-080-081-089-090-097-098-210700-
   Southwest Minnesota

CITY           SKY/WX    TMP DP  RH WIND       PRES   REMARKS
MONTEVIDEO     CLOUDY    66  57  72 S13G22    29.55F
GRANITE FALLS  MOCLDY    67  58  72 SE18G25   29.58F
CANBY          CLOUDY    68  58  68 S16G25    29.53S
MARSHALL       CLOUDY    66  57  72 S25G36    29.54F
REDWOOD FALLS  PTCLDY    66  55  67 S20G31    29.60F
OLIVIA         PTCLDY    63  54  72 S16       29.61F
PIPESTONE      CLOUDY    64  55  72 S23G30    29.57F
WORTHINGTON    PTCLDY    63  56  78 S20G31    29.64F
JACKSON        MOCLDY    61  54  77 S21G26    29.69S
TRACY          CLOUDY    66  58  75 S18G28    29.58F
SLAYTON        PTCLDY    64  57  79 S20G28    29.61F
$$
MNZ065>067-074>077-082>085-091>093-210700-
   South Central Minnesota

CITY           SKY/WX    TMP DP  RH WIND       PRES   REMARKS
MANKATO        CLOUDY    64  54  69 S16G26    29.71S
NEW ULM        MOCLDY    64  54  68 S24       29.66F
ST JAMES       PTCLDY    64  55  72 S23G29    29.68S
FAIRMONT       CLOUDY    63  55  75 S23G30    29.70S
GLENCOE        PTCLDY    66  55  66 S17G25    29.68S
FARIBAULT      CLOUDY    63  52  67 SE15      29.75S
OWATONNA       PTCLDY    63  52  67 S16G25    29.77R
WASECA         CLOUDY    63  50  63 S17G25    29.76S
$$
MNZ078>079-086>088-094>096-210700-
   Southeast Minnesota

CITY           SKY/WX    TMP DP  RH WIND       PRES   REMARKS
ROCHESTER      CLOUDY    61  49  64 S20G30    29.81S
6HR MIN TEMP:  61; 6HR MAX TEMP:  66;

RED WING       PTCLDY    66  46  48 SE9G22    29.78S
STANTON        MOCLDY    64  51  63 S13G25    29.74F
DODGE CENTER   CLOUDY    63  48  59 S23G30    29.79S
WINONA         PTCLDY    66  46  48 S9        29.84S
AUSTIN         PTCLDY    61  48  63 S12G21    29.80S
PRESTON        CLOUDY    60  47  61 S20G28    29.84F
$$
ABBREVIATIONS USED IN REMARKS
   TC - TEMPERATURES IN CELSIUS
  WCI - WIND CHILL INDEX
   HX - HEAT INDEX
  VSB - VISIBILITY
$$




USA.gov is the U.S. government's official web portal to all federal, state and local government web resources and services.